When you browse on this site, cookies collect data to enhance your experience and personalize the content and advertising you see.
Visit our Privacy Policy to learn more. By continuing to use the site, you agree to this use of cookies and data.
  • In Belgien
  • Länderverzeichnis
  • Für 7 Tage
  • Wassertemperatur
  • Satellitenkarten
  • Wetterkarte
  • Widgets
  • user-avatar
    Anmelden

    Stündliche Wetter Manama

    Heute, 21 Januar, Montag

    Zeit Temperatur Niederschläge Wind Luftdruck Luftfeuchtigkeit
    00:00 +16°C° 0 mm 3 m/S 741 mmHg 56%
    01:00 +16°C° 0 mm 2 m/S 741 mmHg 57%
    02:00 +15°C° 0 mm 2 m/S 741 mmHg 59%
    03:00 +15°C° 0 mm 2 m/S 741 mmHg 61%
    04:00 +15°C° 0 mm 2 m/S 741 mmHg 68%
    05:00 +14°C° 0 mm 2 m/S 741 mmHg 70%
    06:00 +14°C° 0 mm 2 m/S 741 mmHg 72%
    07:00 +14°C° 0 mm 2 m/S 741 mmHg 74%
    08:00 +16°C° 0 mm 1 m/S 742 mmHg 64%
    09:00 +18°C° 0 mm 1 m/S 742 mmHg 55%
    10:00 +20°C° 0 mm 1 m/S 743 mmHg 45%
    11:00 +21°C° 0 mm 1 m/S 742 mmHg 41%
    12:00 +22°C° 0 mm 1 m/S 742 mmHg 37%
    13:00 +23°C° 0 mm 1 m/S 742 mmHg 33%
    14:00 +23°C° 0 mm 1 m/S 741 mmHg 32%
    15:00 +23°C° 0 mm 1 m/S 741 mmHg 32%
    16:00 +23°C° 0 mm 1 m/S 741 mmHg 32%
    17:00 +22°C° 0 mm 1 m/S 741 mmHg 35%
    18:00 +21°C° 0 mm 1 m/S 741 mmHg 38%
    19:00 +20°C° 0 mm 1 m/S 741 mmHg 42%
    20:00 +20°C° 0 mm 1 m/S 741 mmHg 44%
    21:00 +19°C° 0 mm 1 m/S 741 mmHg 46%
    22:00 +19°C° 0 mm 1 m/S 741 mmHg 49%
    23:00 +18°C° 0 mm 1 m/S 740 mmHg 51%

    Morgen, 22 Januar, Dienstag

    Zeit Temperatur Niederschläge Wind Luftdruck Luftfeuchtigkeit
    00:00 +18°C° 0 mm 1 m/S 740 mmHg 52%
    01:00 +18°C° 0 mm 1 m/S 740 mmHg 54%
    02:00 +16°C° 0 mm 1 m/S 740 mmHg 56%
    03:00 +16°C° 0 mm 1 m/S 739 mmHg 57%
    04:00 +16°C° 0 mm 2 m/S 739 mmHg 58%
    05:00 +16°C° 0 mm 2 m/S 739 mmHg 58%
    06:00 +15°C° 0 mm 2 m/S 739 mmHg 58%
    07:00 +15°C° 0 mm 2 m/S 739 mmHg 58%
    08:00 +17°C° 0 mm 2 m/S 740 mmHg 53%
    09:00 +18°C° 0 mm 3 m/S 740 mmHg 48%
    10:00 +20°C° 0 mm 3 m/S 741 mmHg 42%
    11:00 +21°C° 0 mm 4 m/S 740 mmHg 39%
    12:00 +22°C° 0 mm 4 m/S 740 mmHg 36%
    13:00 +23°C° 0 mm 5 m/S 740 mmHg 33%
    14:00 +23°C° 0 mm 6 m/S 739 mmHg 33%
    15:00 +23°C° 0 mm 6 m/S 739 mmHg 34%
    16:00 +23°C° 0 mm 7 m/S 739 mmHg 34%
    17:00 +22°C° 0 mm 6 m/S 739 mmHg 40%
    18:00 +21°C° 0 mm 5 m/S 739 mmHg 45%
    19:00 +20°C° 0 mm 4 m/S 739 mmHg 51%
    20:00 +19°C° 0 mm 3 m/S 739 mmHg 55%
    21:00 +19°C° 0 mm 2 m/S 739 mmHg 58%
    22:00 +18°C° 0 mm 2 m/S 739 mmHg 62%
    23:00 +18°C° 0 mm 2 m/S 739 mmHg 64%

    übermorgen, 23 Januar, Mittwoch

    Zeit Temperatur Niederschläge Wind Luftdruck Luftfeuchtigkeit
    00:00 +17°C° 0 mm 2 m/S 739 mmHg 66%
    01:00 +17°C° 0 mm 2 m/S 739 mmHg 68%
    02:00 +17°C° 0 mm 2 m/S 739 mmHg 69%
    03:00 +17°C° 0 mm 2 m/S 739 mmHg 71%
    04:00 +16°C° 0 mm 2 m/S 739 mmHg 72%
    05:00 +16°C° 0 mm 2 m/S 739 mmHg 73%
    06:00 +16°C° 0 mm 2 m/S 739 mmHg 74%
    07:00 +16°C° 0 mm 2 m/S 740 mmHg 75%
    08:00 +17°C° 0 mm 3 m/S 740 mmHg 68%
    09:00 +19°C° 0 mm 3 m/S 741 mmHg 61%
    10:00 +21°C° 0 mm 3 m/S 741 mmHg 54%
    11:00 +22°C° 0 mm 4 m/S 741 mmHg 49%
    12:00 +23°C° 0 mm 5 m/S 741 mmHg 44%
    13:00 +25°C° 0 mm 5 m/S 740 mmHg 38%
    14:00 +25°C° 0 mm 5 m/S 740 mmHg 38%
    15:00 +25°C° 0 mm 5 m/S 740 mmHg 38%
    16:00 +25°C° 0 mm 5 m/S 739 mmHg 38%
    17:00 +23°C° 0 mm 4 m/S 740 mmHg 42%
    18:00 +21°C° 0 mm 3 m/S 740 mmHg 46%
    19:00 +20°C° 0 mm 2 m/S 740 mmHg 50%
    20:00 +21°C° 0 mm 1 m/S 741 mmHg 53%
    21:00 +20°C° 0 mm 1 m/S 741 mmHg 56%
    22:00 +17°C° 0 mm 0 m/S 741 mmHg 58%
    23:00 +17°C° 0 mm 0 m/S 741 mmHg 59%

    24 Januar, Donnerstag

    Zeit Temperatur Niederschläge Wind Luftdruck Luftfeuchtigkeit
    00:00 +17°C° 0 mm 0 m/S 741 mmHg 60%
    01:00 +16°C° 0 mm 0 m/S 741 mmHg 60%
    02:00 +16°C° 0 mm 0 m/S 741 mmHg 60%
    03:00 +16°C° 0 mm 0 m/S 741 mmHg 60%
    04:00 +15°C° 0 mm 0 m/S 740 mmHg 59%
    05:00 +15°C° 0 mm 0 m/S 741 mmHg 60%
    06:00 +15°C° 0 mm 0 m/S 741 mmHg 61%
    07:00 +14°C° 0 mm 0 m/S 742 mmHg 62%
    08:00 +17°C° 0 mm 0 m/S 742 mmHg 56%
    09:00 +19°C° 0 mm 0 m/S 743 mmHg 50%
    10:00 +23°C° 0 mm 1 m/S 743 mmHg 43%
    11:00 +24°C° 0 mm 1 m/S 743 mmHg 39%
    12:00 +25°C° 0 mm 1 m/S 743 mmHg 34%
    13:00 +26°C° 0 mm 1 m/S 742 mmHg 30%
    14:00 +26°C° 0 mm 2 m/S 742 mmHg 30%
    15:00 +26°C° 0 mm 2 m/S 742 mmHg 29%
    16:00 +26°C° 0 mm 2 m/S 741 mmHg 29%
    17:00 +24°C° 0 mm 2 m/S 741 mmHg 34%
    18:00 +23°C° 0 mm 2 m/S 742 mmHg 39%
    19:00 +22°C° 0 mm 1 m/S 742 mmHg 44%
    20:00 +21°C° 0 mm 1 m/S 742 mmHg 48%
    21:00 +21°C° 0 mm 1 m/S 743 mmHg 51%
    22:00 +18°C° 0 mm 0 m/S 743 mmHg 55%
    23:00 +18°C° 0 mm 0 m/S 743 mmHg 57%

    25 Januar, Freitag

    Zeit Temperatur Niederschläge Wind Luftdruck Luftfeuchtigkeit
    00:00 +17°C° 0 mm 0 m/S 742 mmHg 59%
    01:00 +17°C° 0 mm 0 m/S 742 mmHg 61%
    02:00 +16°C° 0 mm 0 m/S 742 mmHg 60%
    03:00 +16°C° 0 mm 0 m/S 741 mmHg 60%
    04:00 +15°C° 0 mm 0 m/S 741 mmHg 59%
    05:00 +15°C° 0 mm 0 m/S 741 mmHg 60%
    06:00 +15°C° 0 mm 0 m/S 742 mmHg 61%
    07:00 +16°C° 0 mm 1 m/S 742 mmHg 62%
    08:00 +19°C° 0 mm 1 m/S 742 mmHg 57%
    09:00 +21°C° 0 mm 1 m/S 743 mmHg 52%
    10:00 +23°C° 0 mm 2 m/S 743 mmHg 47%
    11:00 +24°C° 0 mm 1 m/S 743 mmHg 41%
    12:00 +25°C° 0 mm 1 m/S 743 mmHg 36%
    13:00 +26°C° 0 mm 1 m/S 742 mmHg 30%
    14:00 +26°C° 0 mm 2 m/S 742 mmHg 29%
    15:00 +26°C° 0 mm 3 m/S 742 mmHg 27%
    16:00 +26°C° 0 mm 3 m/S 741 mmHg 26%
    17:00 +25°C° 0 mm 3 m/S 741 mmHg 30%
    18:00 +23°C° 0 mm 2 m/S 742 mmHg 34%
    19:00 +22°C° 0 mm 1 m/S 742 mmHg 38%
    20:00 +22°C° 0 mm 1 m/S 742 mmHg 42%
    21:00 +21°C° 0 mm 1 m/S 742 mmHg 47%
    22:00 +20°C° 0 mm 1 m/S 742 mmHg 51%
    23:00 +20°C° 0 mm 1 m/S 742 mmHg 56%

    26 Januar, Samstag

    Zeit Temperatur Niederschläge Wind Luftdruck Luftfeuchtigkeit
    00:00 +20°C° 0 mm 1 m/S 742 mmHg 60%
    01:00 +19°C° 0 mm 1 m/S 742 mmHg 64%
    02:00 +19°C° 0 mm 1 m/S 741 mmHg 68%
    03:00 +19°C° 0 mm 1 m/S 741 mmHg 71%
    04:00 +19°C° 0 mm 1 m/S 741 mmHg 74%
    05:00 +19°C° 0 mm 1 m/S 741 mmHg 77%
    06:00 +19°C° 0 mm 1 m/S 742 mmHg 79%
    07:00 +18°C° 0 mm 1 m/S 742 mmHg 81%
    08:00 +19°C° 0 mm 2 m/S 743 mmHg 72%
    09:00 +21°C° 0 mm 2 m/S 743 mmHg 63%
    10:00 +24°C° 0 mm 3 m/S 744 mmHg 54%
    11:00 +25°C° 0 mm 2 m/S 743 mmHg 49%
    12:00 +26°C° 0 mm 2 m/S 743 mmHg 43%
    13:00 +27°C° 0 mm 1 m/S 743 mmHg 38%
    14:00 +27°C° 0 mm 2 m/S 742 mmHg 38%
    15:00 +27°C° 0 mm 2 m/S 742 mmHg 38%
    16:00 +27°C° 0 mm 2 m/S 742 mmHg 38%
    17:00 +26°C° 0 mm 2 m/S 742 mmHg 44%
    18:00 +25°C° 0 mm 2 m/S 742 mmHg 50%
    19:00 +23°C° 0 mm 2 m/S 743 mmHg 56%
    20:00 +23°C° 0 mm 2 m/S 743 mmHg 61%
    21:00 +23°C° 0 mm 2 m/S 743 mmHg 65%
    22:00 +21°C° 0 mm 2 m/S 743 mmHg 69%
    23:00 +21°C° 0 mm 2 m/S 743 mmHg 72%
    Mehr zeigen